Regional Weather Roundup
Issued by NWS

Home | Current Version | Previous Version | Graphics & Text | Print | Product List | Glossary On
Versions: 1 2 3 4 5 6 7 8 9 10 11 12 13 14 15 16 17 18 19 20 21 22 23 24 25 26 27 28 29 30 31 32 33 34 35 36 37 38 39 40 41 42 43 44 45 46 47 48 49 50
000
ASUS43 KBIS 060910
RWRND

NORTH DAKOTA REGIONAL WEATHER ROUNDUP
NATIONAL WEATHER SERVICE BISMARCK ND
300 AM CST TUE DEC 06 2016

NOTE: "FAIR" INDICATES FEW OR NO CLOUDS BELOW 12,000 FEET WITH NO
SIGNIFICANT WEATHER AND/OR OBSTRUCTIONS TO VISIBILITY.


NDZ001>003-009>011-017-061000-
NORTHWEST NORTH DAKOTA

CITY           SKY/WX    TMP DP  RH WIND       PRES   REMARKS
WILLISTON      LGT SNOW   8   3  80 NW24G35   29.96R VSB 1   WCI -13
MINOT          HVY SNOW  14  11  87 W36G44    29.72R VSB 1/4 WCI  -8
MINOT AFB      BLWGSNOW  14  11  87 NW33G40   29.71R VSB 1/4 WCI  -8
$$

NDZ018>021-031>035-040>046-061000-
SOUTHWEST NORTH DAKOTA

CITY           SKY/WX    TMP DP  RH WIND       PRES   REMARKS
BISMARCK       LGT SNOW  13  11  92 NW28G43   29.72R VSB 3/4 WCI  -8
DICKINSON      MIX PCPN   5   0  79 NW30G38   29.83R WCI -19
GARRISON         N/A     11   8  88 NW39G51   29.72R WCI -13
HETTINGER ARPT CLOUDY     6   1  80 NW28G41   29.86R WCI -17
$$

NDZ004>008-012>016-024-026-027-054-061000-
NORTHEAST NORTH DAKOTA

CITY           SKY/WX    TMP DP  RH WIND       PRES   REMARKS
GRAND FORKS    CLOUDY    30  27  88 N18       29.32F FOG     WCI  18
GRND FRKS AFB  CLOUDY    29  28  96 N22G29    29.34F FOG     WCI  15
DEVILS LAKE    LGT SNOW  27  25  92 N26       29.46S VSB 1   WCI  12
$$

NDZ022-023-025-028>030-036>039-047>053-061000-
SOUTHEAST NORTH DAKOTA

CITY           SKY/WX    TMP DP  RH WIND       PRES   REMARKS
FARGO          CLOUDY    25  20  81 S20       29.45S WCI  11
JAMESTOWN      LGT SNOW  26  24  92 NW26      29.47R VSB 3/4 WCI  10
$$





USA.gov is the U.S. government's official web portal to all federal, state and local government web resources and services.